Location: Bremen
(53.0793°N, 8.8017°E)
Time: 01:19:17
(UTC+01:00)

deb Explorer IX - Pass Details

Date: 16 December 2021
Orbit: 544 x 1082 km, 38.8° (Epoch: 16 January)

Event Time Altitude Azimuth Distance (km) Brightness Sun altitude
Rises 09:34:16 0° 254° (WSW) 3,493 ? 5.5°
Reaches altitude 10° 09:38:24 10° 229° (SW) 2,414 ? 5.9°
Maximum altitude 09:40:55 13° 202° (SSW) 2,113 ? 6.1°
Drops below altitude 10° 09:43:18 10° 175° (S) 2,241 ? 6.3°
Sets 09:46:51 0° 148° (SSE) 3,033 ? 6.6°
